User: anonymous   Login
Location: Unspecified
(0.0000°N, 0.0000°E)
Time: 20:17:14
(UTC+00:00)
Language:

MOS 1-B - Orbit

View from above orbital plane
View from above orbital plane
View from above satellite
View from above satellite

Ground track
Ground track

The orbit data is extracted from the following two-line orbital elements,

1 20478U 90013A   18289.53195298 -.00000114  00000-0 -50126-4 0  9990
2 20478  99.3611 263.9329 0004832 215.1986 144.8856 13.95462570381577
Epoch (UTC): 16 October 2018 12:46:00
Eccentricity: 0.0004832
inclination: 99.3611°
perigee height: 906 km
apogee height: 913 km
right ascension of ascending node: 263.9329°
argument of perigee: 215.1986°
revolutions per day: 13.95462570
mean anomaly at epoch: 144.8856°
orbit number at epoch: 38157

The dashed part of the orbit path shows where the satellite is in the earth's shadow,  

DLR